TimeCDT,TemperatureF,Dew PointF,Humidity,Sea Level PressureIn,VisibilityMPH,Wind Direction,Wind SpeedMPH,Gust SpeedMPH,PrecipitationIn,Events,Conditions,WindDirDegrees,DateUTC
12:53 AM,57.9,54.0,87,30.04,10.0,ENE,3.5,-,0.00,,Overcast,70,2013-10-22 05:53:00
1:53 AM,57.9,53.1,84,30.01,10.0,Calm,Calm,-,N/A,,Overcast,0,2013-10-22 06:53:00
2:53 AM,57.9,52.0,81,30.03,10.0,Calm,Calm,-,N/A,,Overcast,0,2013-10-22 07:53:00
3:53 AM,57.0,53.1,87,30.02,9.0,Calm,Calm,-,N/A,,Mostly Cloudy,0,2013-10-22 08:53:00
4:53 AM,57.0,54.0,89,30.02,10.0,Calm,Calm,-,N/A,,Overcast,0,2013-10-22 09:53:00
5:53 AM,57.0,53.1,87,30.02,10.0,Calm,Calm,-,N/A,,Overcast,0,2013-10-22 10:53:00
6:53 AM,57.0,53.1,87,30.01,10.0,Calm,Calm,-,N/A,,Overcast,0,2013-10-22 11:53:00
7:53 AM,57.0,53.1,87,30.02,10.0,Calm,Calm,-,N/A,,Mostly Cloudy,0,2013-10-22 12:53:00
8:53 AM,61.0,54.0,78,30.02,10.0,Calm,Calm,-,N/A,,Scattered Clouds,0,2013-10-22 13:53:00
9:53 AM,66.9,48.0,51,30.01,10.0,NW,8.1,-,N/A,,Partly Cloudy,320,2013-10-22 14:53:00
10:53 AM,68.0,46.9,47,29.99,10.0,Variable,4.6,-,N/A,,Scattered Clouds,0,2013-10-22 15:53:00
11:53 AM,70.0,48.9,47,29.98,10.0,Variable,5.8,-,N/A,,Mostly Cloudy,0,2013-10-22 16:53:00
12:53 PM,73.0,46.9,39,29.95,10.0,Variable,6.9,-,N/A,,Scattered Clouds,0,2013-10-22 17:53:00
1:53 PM,73.0,44.1,35,29.92,10.0,West,12.7,-,N/A,,Clear,280,2013-10-22 18:53:00
2:53 PM,73.0,48.9,42,29.91,10.0,WNW,11.5,17.3,N/A,,Scattered Clouds,290,2013-10-22 19:53:00
3:53 PM,72.0,48.9,44,29.90,10.0,Variable,3.5,-,N/A,,Scattered Clouds,0,2013-10-22 20:53:00
4:53 PM,70.0,50.0,49,29.90,10.0,West,8.1,-,N/A,,Scattered Clouds,280,2013-10-22 21:53:00
5:53 PM,68.0,52.0,56,29.91,10.0,NW,5.8,-,N/A,,Mostly Cloudy,320,2013-10-22 22:53:00
6:53 PM,64.9,52.0,63,29.92,10.0,WNW,6.9,-,N/A,,Partly Cloudy,290,2013-10-22 23:53:00
7:53 PM,63.0,52.0,67,29.94,10.0,WNW,6.9,-,N/A,,Clear,300,2013-10-23 00:53:00
8:53 PM,61.0,52.0,72,29.94,10.0,WNW,3.5,-,N/A,,Clear,290,2013-10-23 01:53:00
9:53 PM,55.9,51.1,84,29.95,10.0,Calm,Calm,-,N/A,,Clear,0,2013-10-23 02:53:00
10:53 PM,54.0,51.1,90,29.95,10.0,Calm,Calm,-,N/A,,Clear,0,2013-10-23 03:53:00
11:53 PM,55.9,51.1,84,29.95,10.0,West,4.6,-,N/A,,Clear,280,2013-10-23 04:53:00